Weather History for Monticello, KY

Change the Weather History Date:

Saturday, September 1, 2012

  Actual Average Record
Temperature  
Mean Temperature 78 °F -  
Max Temperature 88 °F 84 °F 100 °F (1957)
Min Temperature 68 °F 61 °F -73 °F (2013)
Cooling Degree Days 13    
Growing Degree Days 28 (Base 50)    
Moisture  
Dew Point 72 °F    
Average Humidity 82    
Maximum Humidity 100    
Minimum Humidity 59    
Precipitation  
Precipitation 0.00 in - - ()
Sea Level Pressure  
Sea Level Pressure 30.13 in    
Wind  
Wind Speed 4 mph (South)    
Max Wind Speed 12 mph    
Max Gust Speed -    
Visibility 10 miles    
Events      
Averages and records for this station are not official NWS values.
T = Trace of Precipitation, MM = Missing Value Source: NWS Daily Summary

Daily Weather History Graph

Daily Weather History Graph

Search for Another Location

Airport:

Trip Planner

Search our weather history database for the weather conditions in past years. The results will help you decide how hot, cold, wet, or windy it might be!

Date:

Astronomy

Sep. 01, 2012 Rise Set
Actual Time 6:10 AM CDT 7:07 PM CDT
Civil Twilight 5:44 AM CDT 7:33 PM CDT
Nautical Twilight 5:12 AM CDT 8:04 PM CDT
Astronomical Twilight 4:40 AM CDT 8:37 PM CDT
Moon 7:27 PM CDT (9/1) 7:14 AM CDT (9/1)
Length of Visible Light 13h 49m
Length of Day
12h 56m
Full, 99% of the Moon is Illuminated
Sep 1
Full
Sep 8
Last Quarter
Sep 15
New
Sep 22
First Quarter
Sep 29
Full

Hourly Weather History & Observations

Time (CDT) Temp. Heat Index Dew Point Humidity Pressure Visibility Wind Dir Wind Speed Gust Speed Precip Events Conditions
12:56 AM 72.9 °F - 72.0 °F 97% 30.16 in 10.0 mi North - - N/A   Clear
1:56 AM 72.0 °F - 70.9 °F 96% 30.15 in 10.0 mi Calm Calm - N/A   Clear
2:56 AM 68.9 °F - 68.9 °F 100% 30.14 in 10.0 mi Calm Calm - N/A   Clear
3:56 AM 68.0 °F - 68.0 °F 100% 30.14 in 10.0 mi Calm Calm - N/A   Clear
4:56 AM 70.9 °F - 70.9 °F 100% 30.15 in 10.0 mi Calm Calm - N/A   Clear
5:56 AM 73.9 °F - 72.0 °F 93% 30.15 in 10.0 mi South 4.6 mph - N/A   Clear
6:56 AM 73.9 °F - 72.9 °F 96% 30.17 in 10.0 mi Calm Calm - N/A   Clear
7:56 AM 79.9 °F - 72.9 °F 79% 30.17 in 10.0 mi SSE 6.9 mph - N/A   Clear
8:45 AM 80.6 °F 85.4 °F 73.4 °F 79% 30.19 in 10.0 mi South 9.2 mph - N/A   Mostly Cloudy
8:56 AM 81.0 °F 85.6 °F 72.9 °F 76% 30.18 in 10.0 mi South 9.2 mph - N/A   Mostly Cloudy
9:15 AM 80.6 °F 85.4 °F 73.4 °F 79% 30.20 in 10.0 mi SSW 9.2 mph - N/A   Mostly Cloudy
9:39 AM 80.6 °F 85.4 °F 73.4 °F 79% 30.20 in 10.0 mi SSW 10.4 mph - N/A   Overcast
9:56 AM 79.9 °F - 73.9 °F 82% 30.19 in 10.0 mi South 8.1 mph - N/A   Scattered Clouds
10:56 AM 79.9 °F - 73.9 °F 82% 30.19 in 10.0 mi SSW 8.1 mph - N/A   Clear
12:56 PM 83.8 °F 89.8 °F 72.9 °F 69% 30.15 in 10.0 mi South 9.2 mph - N/A   Partly Cloudy
1:56 PM 88.0 °F 95.6 °F 72.9 °F 61% 30.11 in 10.0 mi SSW 11.5 mph - N/A   Scattered Clouds
2:56 PM 88.0 °F 94.7 °F 72.0 °F 59% 30.08 in 10.0 mi SW 11.5 mph - N/A   Partly Cloudy
4:56 PM 86.9 °F 92.5 °F 70.9 °F 59% 30.05 in 10.0 mi SSW 9.2 mph - N/A   Clear
5:56 PM 86.9 °F 92.5 °F 70.9 °F 59% 30.05 in 10.0 mi South 6.9 mph - N/A   Partly Cloudy
6:56 PM 79.9 °F - 72.0 °F 77% 30.05 in 10.0 mi Calm Calm - N/A   Clear
7:56 PM 74.8 °F - 72.0 °F 91% 30.04 in 10.0 mi Calm Calm - N/A   Clear
9:56 PM 72.9 °F - 72.0 °F 97% 30.04 in 10.0 mi SSE 4.6 mph - N/A   Clear
10:56 PM 77.9 °F - 70.9 °F 79% 30.04 in 10.0 mi SSE 5.8 mph - N/A   Clear
11:56 PM 77.0 °F - 70.9 °F 81% 30.05 in 10.0 mi SSE 4.6 mph - N/A   Clear